Regional Weather Roundup
Issued by NWS

Home | Current Version | Previous Version | Text Only | Print | Product List | Glossary On
Versions: 1 2 3 4 5 6 7 8 9 10 11 12 13 14 15 16 17 18 19 20 21 22 23 24 25 26 27 28 29 30 31 32 33 34 35 36 37 38 39 40 41 42 43 44 45 46 47 48 49 50
000
ASUS43 KDTX 221301
RWRMI
MICHIGAN HOURLY REGIONAL WEATHER ROUNDUP
NATIONAL WEATHER SERVICE DETROIT/PONTIAC MI
800 AM EST MON DEC 22 2014

NOTE: "FAIR" INDICATES FEW OR NO CLOUDS BELOW 12,000 FEET WITH NO
SIGNIFICANT WEATHER AND/OR OBSTRUCTION TO VISIBILITY.

MIZ047>049-052>055-059>063-066>070-074>076-081>083-221400-
SOUTHEAST LOWER MICHIGAN

CITY           SKY/WX    TMP DP  RH WIND       PRES   REMARKS
ADRIAN         PTCLDY    25  23  92 E5        30.09R FOG     WCI  19
ALMA           PTCLDY    26  25  96 E5        30.08R FOG     WCI  20
ANN ARBOR      CLEAR     24  21  88 E3        30.09S FOG
BAD AXE        CLOUDY    28  25  89 SE5       30.12F WCI  23
CARO           MOCLDY    27  23  85 E5        30.09F WCI  21
DETROIT CITY   CLEAR     25  21  85 CALM      30.12R FOG
DETROIT        MOCLDY    27  23  85 E3        30.11S FOG
FLINT          PTCLDY    25  20  81 E7        30.09S HAZE    WCI  17
GROSSE ILE     CLEAR     27  25  93 NE3       30.10R FOG
HILLSDALE      MOCLDY    25  23  92 E6        30.04R FOG     WCI  18
HOWELL         PTCLDY    25  23  95 SE6       30.07R FOG     WCI  18

CITY           SKY/WX    TMP DP  RH WIND       PRES   REMARKS
JACKSON        PTCLDY    25  23  92 SE8       30.06S FOG     WCI  16
LAMBERTVILLE   PTCLDY    27  23  86 CALM      30.10R FOG
LANSING        PTCLDY    27  23  85 SE10      30.07S FOG     WCI  17
LAPEER         FAIR      25  22  90 CALM      30.11R
MASON          PTCLDY    26  23  90 SE6       30.07R FOG     WCI  19
MONROE         CLEAR     28  27  93 CALM      30.08S
MT. CLEMENS    MOCLDY    28  28 100 E7        30.09F WCI  20
PONTIAC        CLOUDY    25  22  88 E5        30.08S WCI  19
PORT HOPE        N/A     30  24  78 CALM      30.12F
PORT HURON     MOCLDY    27  23  86 E6        30.12F WCI  20
TRI CITIES     MOCLDY    27  23  85 E8        30.10F WCI  19
TROY           CLEAR     28  24  84 E3        30.12F FOG
SAGINAW HB     MOCLDY    27  27 100 CALM      30.10S
$$
MIZ043>046-050>051-056>058-064>065-071>073-077>080-221400-
SOUTHWEST LOWER MICHIGAN

CITY           SKY/WX    TMP DP  RH WIND       PRES   REMARKS
BATTLE CREEK   PTCLDY    27  22  81 SE5       30.04R WCI  22
BENTON HARBOR  CLOUDY    28  25  88 SE9       29.99F FOG     WCI  19
BIG RAPIDS     MOCLDY    28  26  94 SE7       30.03S FOG     WCI  21
COLDWATER      PTCLDY    26  22  87 E6        30.03S FOG     WCI  19
FREMONT        FAIR      28  24  83 SE10      30.02S WCI  19
HOLLAND        PTCLDY    30  23  75 SE10      30.02S WCI  21
GRAND RAPIDS   MOCLDY    26  22  84 SE10      30.04S FOG     WCI  16
IONIA          FAIR      26  24  91 SE8       30.05S FOG     WCI  18
KALAMAZOO      PTCLDY    27  22  81 SE5       30.03S HAZE    WCI  22
LUDINGTON      MOCLDY    31  25  78 SE5       30.00S WCI  26
MARSHALL       PTCLDY    23  21  91 E5        30.04S FOG     WCI  17
MOUNT PLEASANT MOCLDY    24  22  94 CALM      30.07S FOG
MUSKEGON       MOCLDY    29  23  78 SE10      30.02S WCI  20
SOUTH HAVEN    CLEAR     28  24  84 SE6       30.01S FOG     WCI  22
$$
MIZ016>042-221400-
NORTHERN LOWER MICHIGAN

CITY           SKY/WX    TMP DP  RH WIND       PRES   REMARKS
ALPENA         CLOUDY    29  25  85 SE8       30.12S WCI  21
BEAVER ISLAND  CLOUDY    32  28  86 SE7       30.02F WCI  26
BELLAIRE       CLOUDY    31  25  77 S3        30.05S
CADILLAC       CLOUDY    27  24  88 SE7       30.00S FOG     WCI  19
CHARLEVOIX     CLOUDY    30  25  83 SE8       30.06F WCI  22
FRANKFORT      MOCLDY    31  26  81 SE6       30.00F WCI  25
GAYLORD        CLOUDY    26  23  88 S12       30.03S FOG     WCI  16
GRAYLING       CLOUDY    28  26  91 SE8       30.05F FOG     WCI  20
HARBOR SPRINGS CLOUDY    29  25  83 E6        30.05S WCI  23
HOUGHTON LAKE  CLOUDY    26  22  84 SE8       30.06S FOG     WCI  18
MANISTEE       PTCLDY    30  21  69 SE6       30.01S WCI  24
OSCODA         CLOUDY    29  26  86 CALM      30.13S
PELLSTON       CLOUDY    29  25  85 SE10      30.06S WCI  20
ROGERS CITY    CLOUDY    29  27  92 S9        30.11S WCI  21
TRAVERSE CITY  CLOUDY    31  24  75 VRB6      30.02S WCI  25
$$
MIZ007>008-015-221400-
EASTERN UPPER MICHIGAN

CITY           SKY/WX    TMP DP  RH WIND       PRES   REMARKS
KINROSS        CLOUDY    30  28  93 SE13      30.05S WCI  20
MACKINAC ISLAN CLOUDY    31  26  82 SE10G22   30.05S WCI  22
NEWBERRY       CLOUDY    30  28  93 SE13G20   30.00S WCI  20
S. S. MARIE    CLOUDY    32  27  81 SE10      30.05F WCI  24
MUNISING         N/A     36  32  85 S9        29.95R WCI  29
$$
MIZ004>006-011>014-085-221400-
CENTRAL UPPER MICHIGAN

CITY           SKY/WX    TMP DP  RH WIND       PRES   REMARKS
MANISTIQUE     CLOUDY    34  32  92 S12       29.98S WCI  25
ESCANABA       CLOUDY    36  30  80 S15       29.94S WCI  26
MENOMINEE      CLOUDY    36  30  80 S8        29.93S WCI  29
SAWYER-GWINN   LGT SNOW  34  32  93 S12       29.90R WCI  25
$$
MIZ001>003-009>011-084-221400-
WESTERN UPPER MICHIGAN

CITY           SKY/WX    TMP DP  RH WIND       PRES   REMARKS
IRON MOUNTAIN  CLOUDY    33  30  88 SE7       29.88S WCI  27
HOUGHTON       LGT SNOW  32  31  96 S9        29.83S FOG     WCI  24
COPPER HARBOR    N/A     36  33  89 SW9       29.85S WCI  29
IRONWOOD       CLOUDY    36  32  87 SE8       29.76R WCI  29
$$

ABBREVIATIONS USED IN REMARKS
   TC - TEMPERATURE IN CELSIUS
  WCI - WIND CHILL INDEX
   HX - HEAT INDEX
  VSB - VISIBILITY



USA.gov is the U.S. government's official web portal to all federal, state and local government web resources and services.